SCP
0 0 0 0 0 0 0 0 0 0 0 0 0 0 0 0 0 0 0 0 0 0
0 0 0 0 0 0 0 0 0 0 0 0 0 0 0 0 0 0 0 0 0 0
0 0 0 0 0 0 0 0 0 0 0 0 0 0 0 0 0 0 0 0 0 0
-0 0 0 0 0 0 0 0 0 0 0 0 0 0 0 0 0 0 0 0 0 0
-0 -0 -0 -0 -0 0 0 0 0 0 0 0 0 0 0 0 0 0 0 0 0 0
0 0 0 0 0 0 0 -0 0 0 0 0 0 0 0 0 0 0 0 0 0 0
0 0 0 0 0 0 0 -0 -0 -0 -0 0 0 0 0 0 0 0 0 0 0 0
0 0 0 0 -0 -0 -0 -0 -0 -0 -0 -0 -0 -0 -0 -0 0 0 0 0 0 0
0 0 0 0 0 0 0 0 0 0 0 0 0 0 0 0 0 0 0 0 0 0
0 0 0 0 0 0 0 0 0 0 0 0 0 0 0 0 0 0 0 0 0 0
0 0 0 0 0 0 0 0 0 0 0 0 0 0 0 0 0 0 0 0 0 0
0 0 0 0 0 0 0 0 0 0 0 0 0 0 0 0 0 0 0 0 0 0
0 0 0 0 0 0 0 0 0 0 0 0 0 0 0 0 0 0 0 0 0 0
0 0 0 0 0 0 0 0 0 0 0 0 0 0 0 0 0 0 0 0 0 0
Wind_Speed_500mb
29 31 33 33 34 38 40 40 40 41 40 40 39 40 41 43 45 50 52 55 55 59
31 32 35 37 40 40 39 44 47 48 47 47 49 49 49 48 50 51 51 56 60 66
32 32 34 38 42 46 48 50 54 57 58 58 56 54 56 58 55 57 57 56 55 60
29 28 32 39 45 50 53 56 58 62 65 68 69 67 67 64 64 63 62 61 62 61
42 44 47 50 51 53 57 60 65 68 70 72 72 76 80 81 75 74 72 72 65 62
54 57 60 64 68 70 70 70 69 69 73 77 77 80 81 85 87 90 87 85 80 74
59 63 70 75 79 79 80 86 90 92 94 93 94 95 96 96 96 95 96 96 94 88
64 70 76 81 84 90 95 98 102 105 109 111 113 114 102 91 92 96 102 105 103 101
69 75 79 84 93 97 102 107 111 114 115 118 118 114 80 75 78 83 90 102 113 113
70 78 87 93 99 104 107 110 113 116 117 121 122 102 85 84 87 94 100 99 97 95
77 85 91 96 99 102 104 108 113 116 116 118 121 98 84 83 87 96 102 102 102 100
84 90 93 96 100 103 106 110 111 110 110 106 105 91 75 71 78 92 108 114 108 99
83 86 91 96 100 102 100 103 98 97 89 88 89 80 70 62 69 81 87 89 93 93
79 84 89 95 94 95 95 92 90 90 86 83 78 76 62 57 62 72 82 85 86 83
Wind_Direction_500mb
16 10 4 1 353 346 345 344 339 332 328 327 325 322 316 311 303 295 289 280 274 275
359 353 350 346 342 339 333 329 327 328 325 320 318 318 314 310 308 303 295 291 287 279
345 341 336 332 328 327 326 323 322 322 320 317 317 315 312 311 307 302 300 297 291 288
344 339 331 328 326 323 321 320 319 317 314 311 311 312 309 306 304 303 301 295 293 291
338 334 330 328 326 322 319 315 314 311 309 306 305 305 304 304 301 299 298 295 293 289
328 326 323 321 321 320 317 314 310 306 303 302 302 299 297 295 297 297 295 292 291 290
316 314 314 314 314 314 312 311 309 308 305 303 300 298 295 292 289 286 284 286 287 286
304 305 306 308 309 309 308 307 305 304 302 303 302 301 301 298 296 292 288 282 279 280
298 300 302 303 303 304 303 303 303 302 300 299 298 297 293 291 290 287 282 283 284 280
298 300 302 304 304 304 304 303 301 299 298 296 294 293 290 288 286 285 283 281 280 280
304 306 308 307 307 306 305 303 301 299 297 295 293 295 292 288 282 276 274 276 278 276
312 312 312 312 312 310 308 305 303 302 301 300 299 300 298 295 285 276 271 270 272 273
315 315 316 315 314 312 310 307 307 305 304 304 303 304 301 296 290 287 286 286 282 279
318 318 317 316 314 314 314 312 310 310 311 311 312 313 306 297 292 290 291 289 288 285
Wind_Speed_850mb
29 31 33 33 34 38 40 40 40 41 40 40 39 40 41 43 45 50 52 55 55 59
31 32 35 37 40 40 39 44 47 48 47 47 49 49 49 48 50 51 51 56 60 66
32 32 34 38 42 46 48 50 54 57 58 58 56 54 56 58 55 57 57 56 55 60
29 28 32 39 45 50 53 56 58 62 65 68 69 67 67 64 64 63 62 61 62 61
42 44 47 50 51 53 57 60 65 68 70 72 72 76 80 81 75 74 72 72 65 62
54 57 60 64 68 70 70 70 69 69 73 77 77 80 81 85 87 90 87 85 80 74
59 63 70 75 79 79 80 86 90 92 94 93 94 95 96 96 96 95 96 96 94 88
64 70 76 81 84 90 95 98 102 105 109 111 113 114 102 91 92 96 102 105 103 101
69 75 79 84 93 97 102 107 111 114 115 118 118 114 80 75 78 83 90 102 113 113
70 78 87 93 99 104 107 110 113 116 117 121 122 102 85 84 87 94 100 99 97 95
77 85 91 96 99 102 104 108 113 116 116 118 121 98 84 83 87 96 102 102 102 100
84 90 93 96 100 103 106 110 111 110 110 106 105 91 75 71 78 92 108 114 108 99
83 86 91 96 100 102 100 103 98 97 89 88 89 80 70 62 69 81 87 89 93 93
79 84 89 95 94 95 95 92 90 90 86 83 78 76 62 57 62 72 82 85 86 83
Wind_Direction_850mb
16 10 4 1 353 346 345 344 339 332 328 327 325 322 316 311 303 295 289 280 274 275
359 353 350 346 342 339 333 329 327 328 325 320 318 318 314 310 308 303 295 291 287 279
345 341 336 332 328 327 326 323 322 322 320 317 317 315 312 311 307 302 300 297 291 288
344 339 331 328 326 323 321 320 319 317 314 311 311 312 309 306 304 303 301 295 293 291
338 334 330 328 326 322 319 315 314 311 309 306 305 305 304 304 301 299 298 295 293 289
328 326 323 321 321 320 317 314 310 306 303 302 302 299 297 295 297 297 295 292 291 290
316 314 314 314 314 314 312 311 309 308 305 303 300 298 295 292 289 286 284 286 287 286
304 305 306 308 309 309 308 307 305 304 302 303 302 301 301 298 296 292 288 282 279 280
298 300 302 303 303 304 303 303 303 302 300 299 298 297 293 291 290 287 282 283 284 280
298 300 302 304 304 304 304 303 301 299 298 296 294 293 290 288 286 285 283 281 280 280
304 306 308 307 307 306 305 303 301 299 297 295 293 295 292 288 282 276 274 276 278 276
312 312 312 312 312 310 308 305 303 302 301 300 299 300 298 295 285 276 271 270 272 273
315 315 316 315 314 312 310 307 307 305 304 304 303 304 301 296 290 287 286 286 282 279
318 318 317 316 314 314 314 312 310 310 311 311 312 313 306 297 292 290 291 289 288 285